Tracking 19192 objects as of 21-Jun-2018
HD Live streaming from Space Station
objects crossing your sky now

FENGYUN 1C DEB

Track FENGYUN 1C DEB now!
10-day predictions


NORAD ID: 41015
Int'l Code: 1999-025EXV
Perigee: 465.2 km
Apogee: 663.9 km
Inclination: 99.3 °
Period: 95.8 minutes
Semi major axis: 6935 km
RCS: Unknown
Launch date: May 10, 1999
Source: People's Republic of China (PRC)
Launch site: Taiyaun Space Center, China (TSC)

Note: This is SATELLITE DEBRIS
aabbcc
Your satellite tracking list
Your tracking list is empty




NASA's NSSDC Master Catalog

Two Line Element Set (TLE):
1 41015U 99025EXV 18168.21538092  .00006371  00000-0  38302-3 0  9996
2 41015  99.2636 169.5378 0143286 178.5735 181.5923 15.03075247150804
Source of the keplerian elements: AFSPC